"Pseudo-MPEC" for P22hlGk

Created 2025 Dec 5 18:35:10 UT using Find_Orb

Click here for an explanation of pseudo-MPECs

 
 Astrometry: 
     P22hlGk* C2025 11 15.48530705 28 21.209-01 01 36.37   ~BFEo 22.47wXNEOCPF52
     P22hlGk  C2025 11 15.49703905 28 20.587-01 01 40.08   ~BFEo 22.39wXNEOCPF52
     P22hlGk  C2025 11 15.50878905 28 20.005-01 01 44.13   ~BFEo 22.39wXNEOCPF52
     P22hlGk  C2025 11 15.64562605 28 12.992-01 02 29.74   ~BFIZ 21.59GVNEOCPF51
     P22hlGk  C2025 11 15.64627205 28 12.949-01 02 29.65   ~BFIZ 21.32GVNEOCPF51

Station data:
(F51) Pan-STARRS 1, Haleakala  (N20.707234 W156.255910)  US/Hawaii.
   Observers J. Herman, T. Lowe, P. Minguez, A. Schultz, I. Smith. Measurers
   K. Chambers, T. de Boer, J. Fairlamb, H. Gao, M. Huber, C.-C. Lin, E.
   Magnier, Y. Ramanjooloo, R. Wainscoat, R. Weryk. 1.8-m Ritchey-Chrétien +
   CCD.
(F52) Pan-STARRS 2, Haleakala  (N20.707382 W156.255910)  US/Hawaii.
   Observers J. Herman, T. Lowe, P. Minguez, A. Schultz, I. Smith. Measurers
   K. Chambers, T. de Boer, J. Fairlamb, H. Gao, M. Huber, C.-C. Lin, E.
   Magnier, Y. Ramanjooloo, R. Wainscoat, R. Weryk. 1.8-m Ritchey-Chrétien +
   CCD.

Orbital elements:  P22hlGk
   Perihelion 2026 Jun 7.160320 +/- 435 TT =  3:50:51.6 (JD 2461198.660320)
Epoch 2025 Nov 16.0 TT = JDT 2460995.5   Earth MOID: 0.0108   Ve: 0.0734
M 341.086013860 +/- 70              Ma: 0.0765                   AutoNEOCP
n   0.093098820 +/- 0.137           Peri.   75.094872 +/- 60
a   4.821401117 +/- 4.73            Node   128.928184 +/- 60
e   0.86962375 +/- 0.252            Incl.   19.963159 +/- 46
P  10.58668                H 17.39  G  0.15   U 11.5  SR
q 0.628596157 +/- 1.31    Q 9.014206076 +/- 23            (J2000 ecliptic)
From 5 observations 2025 Nov. 15 (3.9 hr); mean residual 0".12
Residuals in arcseconds: 
251115 F52  .10+  .08-    251115 F52  .10+  .03-    251115 F51  .08-  .15+    
251115 F52  .21-  .11+    251115 F51  .08+  .15-    

Ephemerides (geocentric):
Date (UTC) HH   RA             Dec           delta  r     elong  mag " sig PA
---- --------  ------------   ------------  ------ ------ -----  --- --------
2025 12 05 19  05 06 03.954   -02 30 19.04  1.8265 2.7499 154.7 21.5  26d  89
2025 12 05 20  05 06 00.622   -02 30 25.91  1.8261 2.7495 154.7 21.5  26d  89
2025 12 05 21  05 05 57.289   -02 30 32.75  1.8256 2.7490 154.7 21.5  26d  89
2025 12 05 22  05 05 53.953   -02 30 39.58  1.8252 2.7486 154.7 21.5  26d  89
2025 12 05 23  05 05 50.616   -02 30 46.39  1.8248 2.7482 154.7 21.5  26d  89
2025 12 06 00  05 05 47.277   -02 30 53.17  1.8243 2.7477 154.7 21.5  26d  89
2025 12 06 01  05 05 43.936   -02 30 59.94  1.8239 2.7473 154.7 21.5  26d  89
2025 12 06 02  05 05 40.593   -02 31 06.68  1.8234 2.7469 154.7 21.5  26d  89
2025 12 06 03  05 05 37.248   -02 31 13.40  1.8230 2.7464 154.7 21.5  26d  89
2025 12 06 04  05 05 33.901   -02 31 20.10  1.8225 2.7460 154.7 21.5  26d  89
2025 12 06 05  05 05 30.553   -02 31 26.78  1.8221 2.7456 154.7 21.5  26d  89
2025 12 06 06  05 05 27.202   -02 31 33.44  1.8217 2.7451 154.7 21.5  26d  89
2025 12 06 07  05 05 23.850   -02 31 40.08  1.8212 2.7447 154.7 21.5  26d  89
2025 12 06 08  05 05 20.496   -02 31 46.69  1.8208 2.7443 154.7 21.5  26d  89
2025 12 06 09  05 05 17.140   -02 31 53.29  1.8203 2.7438 154.7 21.5  26d  89
2025 12 06 10  05 05 13.782   -02 31 59.86  1.8199 2.7434 154.7 21.5  26d  89
2025 12 06 11  05 05 10.422   -02 32 06.41  1.8195 2.7430 154.7 21.5  26d  89
2025 12 06 12  05 05 07.061   -02 32 12.94  1.8190 2.7425 154.7 21.5  26d  89
2025 12 06 13  05 05 03.697   -02 32 19.45  1.8186 2.7421 154.7 21.5  26d  89
2025 12 06 14  05 05 00.332   -02 32 25.94  1.8182 2.7417 154.7 21.5  26d  89
2025 12 06 15  05 04 56.965   -02 32 32.40  1.8177 2.7412 154.7 21.5  26d  89
2025 12 06 16  05 04 53.596   -02 32 38.85  1.8173 2.7408 154.7 21.5  26d  89
2025 12 06 17  05 04 50.225   -02 32 45.27  1.8168 2.7404 154.7 21.5  26d  89
2025 12 06 18  05 04 46.853   -02 32 51.67  1.8164 2.7399 154.7 21.5  26d  89
2025 12 06 19  05 04 43.478   -02 32 58.05  1.8160 2.7395 154.7 21.5  26d  89
2025 12 06 20  05 04 40.102   -02 33 04.41  1.8155 2.7391 154.7 21.5  26d  89
2025 12 06 21  05 04 36.724   -02 33 10.74  1.8151 2.7386 154.7 21.5  26d  89
2025 12 06 22  05 04 33.345   -02 33 17.06  1.8147 2.7382 154.7 21.5  26d  89
2025 12 06 23  05 04 29.963   -02 33 23.35  1.8142 2.7378 154.7 21.5  26d  89
2025 12 07 00  05 04 26.580   -02 33 29.62  1.8138 2.7373 154.7 21.5  26d  89
2025 12 07 01  05 04 23.194   -02 33 35.87  1.8134 2.7369 154.7 21.5  26d  89
2025 12 07 02  05 04 19.807   -02 33 42.10  1.8130 2.7365 154.7 21.5  26d  89
2025 12 07 03  05 04 16.419   -02 33 48.30  1.8125 2.7360 154.7 21.5  26d  89
2025 12 07 04  05 04 13.028   -02 33 54.49  1.8121 2.7356 154.7 21.5  26d  89
2025 12 07 05  05 04 09.636   -02 34 00.65  1.8117 2.7352 154.7 21.5  26d  89
2025 12 07 06  05 04 06.242   -02 34 06.79  1.8112 2.7347 154.7 21.5  26d  89
2025 12 07 07  05 04 02.846   -02 34 12.91  1.8108 2.7343 154.7 21.5  26d  89
2025 12 07 08  05 03 59.448   -02 34 19.00  1.8104 2.7339 154.7 21.5  26d  89
2025 12 07 09  05 03 56.049   -02 34 25.08  1.8100 2.7334 154.7 21.5  26d  89
2025 12 07 10  05 03 52.648   -02 34 31.13  1.8095 2.7330 154.7 21.5  27d  89
2025 12 07 11  05 03 49.245   -02 34 37.16  1.8091 2.7326 154.7 21.5  27d  89
2025 12 07 12  05 03 45.840   -02 34 43.17  1.8087 2.7321 154.7 21.5  27d  89
2025 12 07 13  05 03 42.434   -02 34 49.15  1.8083 2.7317 154.7 21.5  27d  89
2025 12 07 14  05 03 39.026   -02 34 55.12  1.8078 2.7313 154.7 21.5  27d  89
2025 12 07 15  05 03 35.616   -02 35 01.06  1.8074 2.7308 154.7 21.5  27d  89
2025 12 07 16  05 03 32.205   -02 35 06.98  1.8070 2.7304 154.7 21.5  27d  89
2025 12 07 17  05 03 28.791   -02 35 12.88  1.8066 2.7300 154.7 21.5  27d  89
2025 12 07 18  05 03 25.376   -02 35 18.75  1.8061 2.7295 154.7 21.5  27d  89